Location: Cheching
(60.0667°N, 164.2167°W)
Time: 13:18:12
(UTC+00:00)

O/OREOS (USA 219) - Pass Details

Date: 17 January 2021
Orbit: 621 x 646 km, 72.0° (Epoch: 22 May)

Event Time Altitude Azimuth Distance (km) Brightness Sun altitude
Rises 05:03:49 0° 318° (NW) 2,964 ? -17.5°
Reaches altitude 10° 05:06:36 10° 302° (WNW) 2,045 ? -17.8°
Maximum altitude 05:09:53 20° 256° (WSW) 1,496 ? -18.2°
Drops below altitude 10° 05:13:09 10° 210° (SSW) 2,024 ? -18.6°
Sets 05:15:53 0° 194° (SSW) 2,922 ? -18.9°
